Location: Memphis International Airport Police
(35.0443°N, 89.9815°W)
Time: 05:08:57
(UTC+00:00)

Cosmos 494 Rocket - Pass Details

Date: 26 September 2023
Orbit: 741 x 769 km, 74.1° (Epoch: 10 December)

Event Time Altitude Azimuth Distance (km) Brightness Sun altitude
Rises 10:23:39 0° 344° (NNW) 3,198 7.2 -18.5°
Reaches altitude 10° 10:26:01 10° 345° (NNW) 2,267 6.4 -18.1°
Maximum altitude 10:31:10 80° 73° (ENE) 757 4.0 -17.0°
Drops below altitude 10° 10:36:14 10° 160° (SSE) 2,242 6.5 -16.0°
Sets 10:38:35 0° 162° (SSE) 3,160 7.3 -15.5°
